Location: Twillingate Astronomical Observatory
(49.6173°N, 54.7580°W)
Time: 13:26:41
(UTC-03:-30)

Amateur Radio Satellites - All Passes

Search period start: 14 February 2016 12:56
Search period end: 15 February 2016 12:56
Location: Twillingate Astronomical Observatory, 49.6173°N, 54.7580°W

Satellite Date Start Highest point End Downlink Frequencies (MHz)
Time Altitude Azimuth
JAS-2 14 Feb 13:00:08 13:07:34 82° 254° (WSW) 13:14:13 435.910
VELOX 1 14 Feb 13:01:06 13:04:43 25° 297° (WNW) 13:08:17 145.980
UKube-1 14 Feb 13:03:44 13:07:17 25° 297° (WNW) 13:10:48 .
SPROUT 14 Feb 13:03:51 13:08:02 56° 289° (WNW) 13:12:12 437.525
Cosmos 2491 14 Feb 13:06:24 13:12:19 21° 75° (ENE) 13:18:15 435.465 / 435.565
Cosmos 2504 14 Feb 13:11:20 13:16:19 16° 46° (NE) 13:21:07 435.465 / 435.565
AISAT 14 Feb 13:19:14 13:22:09 18° 301° (WNW) 13:25:02 437.250
CUBEBUG 1 14 Feb 13:24:17 13:27:14 18° 301° (WNW) 13:30:09 437.445
DX 1 14 Feb 13:25:34 13:28:05 15° 303° (WNW) 13:30:36 434.975-435.025
ISS 14 Feb 13:33:25 13:34:14 11° 135° (SE) 13:35:04 145.825
SWISSCUBE 14 Feb 13:40:16 13:44:34 31° 95° (E) 13:48:49 437.505
DANDE 14 Feb 13:41:38 13:47:28 32° 276° (W) 13:52:04 436.750
M-CUBED/EXP-1 PRIME 14 Feb 13:44:51 13:45:49 11° 53° (NE) 13:46:47 437.505
AUBIESAT-1 14 Feb 13:50:18 13:51:03 11° 52° (NE) 13:51:48 437.475
Gurwin Techsat 1B 14 Feb 13:56:08 14:01:17 49° 261° (W) 14:06:28 435.225
PCSat 14 Feb 14:03:17 14:05:43 13° 352° (N) 14:08:10 145.827
ITAMSAT 1 14 Feb 14:04:26 14:09:38 72° 257° (WSW) 14:14:52 435.822/435.867
AO-85 14 Feb 14:06:20 14:09:38 16° 3° (N) 14:12:53 145.980
SO-50 14 Feb 14:09:48 14:10:14 10° 254° (WSW) 14:10:40 436.795
ITUPSAT 1 14 Feb 14:19:33 14:24:21 62° 102° (ESE) 14:29:08 437.325
BEESAT 14 Feb 14:24:37 14:29:27 71° 103° (ESE) 14:34:14 436.000
Oscar 19 14 Feb 14:27:55 14:29:55 12° 275° (W) 14:31:56 437.125/150
TISAT 1 14 Feb 14:29:55 14:33:08 22° 298° (WNW) 14:36:20 437.305
AO-7 14 Feb 14:36:16 14:44:38 81° 67° (ENE) 14:53:02 29.400- 29.500
KKS-1 14 Feb 14:43:06 14:46:10 18° 91° (E) 14:49:13 437.445
YUBILEINY 14 Feb 14:47:25 14:55:57 55° 270° (W) 15:04:25 435.215
JAS-2 14 Feb 14:48:37 14:53:24 18° 273° (W) 14:57:54 435.910
RS-15 14 Feb 14:54:48 15:05:32 40° 350° (N) 15:16:47 29.354- 29.394
O/OREOS (USA 219) 14 Feb 14:55:33 14:58:36 17° 43° (NE) 15:01:40 437.305
Cosmos 2491 14 Feb 14:59:07 15:07:50 84° 97° (E) 15:16:36 435.465 / 435.565
Cosmos 2504 14 Feb 15:03:32 15:12:04 58° 73° (ENE) 15:19:58 435.465 / 435.565
ISS 14 Feb 15:06:54 15:10:04 50° 153° (SSE) 15:13:14 145.825
HORYU 2 14 Feb 15:11:53 15:16:09 51° 70° (ENE) 15:20:28 437.375
MOZHAYETS 4 14 Feb 15:13:30 15:16:33 17° 89° (E) 15:19:36
M-CUBED/EXP-1 PRIME 14 Feb 15:16:36 15:20:04 75° 250° (WSW) 15:23:23 437.505
SWISSCUBE 14 Feb 15:17:59 15:22:26 38° 294° (WNW) 15:26:52 437.505
AUBIESAT-1 14 Feb 15:21:43 15:25:11 80° 252° (WSW) 15:28:32 437.475
BEESAT 3 14 Feb 15:29:31 15:32:31 21° 115° (ESE) 15:35:33 437.485
AO-85 14 Feb 15:47:31 15:51:59 26° 27° (NNE) 15:56:13 145.980
STARS 14 Feb 15:47:57 15:52:08 42° 99° (E) 15:56:16 437.465
PCSat 14 Feb 15:48:18 15:51:31 16° 19° (NNE) 15:54:43 145.827
ITAMSAT 1 14 Feb 15:48:38 15:50:04 11° 276° (W) 15:51:29 435.822/435.867
ITUPSAT 1 14 Feb 15:58:11 16:01:47 21° 301° (WNW) 16:05:23 437.325
BEESAT 2 14 Feb 16:02:33 16:06:01 28° 118° (ESE) 16:09:30 435.950
BEESAT 14 Feb 16:03:24 16:06:45 19° 302° (WNW) 16:10:06 436.000
KKS-1 14 Feb 16:18:45 16:23:07 57° 289° (WNW) 16:27:27 437.445
CUTE-I 14 Feb 16:20:27 16:24:55 28° 61° (ENE) 16:29:26 437.470
AO-7 14 Feb 16:31:30 16:38:18 27° 268° (W) 16:45:10 29.400- 29.500
O/OREOS (USA 219) 14 Feb 16:34:04 16:38:42 89° 242° (WSW) 16:43:18 437.305
Cubesat XI-IV 14 Feb 16:35:24 16:40:13 36° 64° (ENE) 16:45:04 437.490
ISS 14 Feb 16:43:16 16:46:31 62° 353° (N) 16:49:44 145.825
YUBILEINY 14 Feb 16:47:39 16:50:36 12° 293° (WNW) 16:53:32 435.215
MOZHAYETS 4 14 Feb 16:49:34 16:54:12 66° 287° (WNW) 16:58:49
HORYU 2 14 Feb 16:49:46 16:53:02 20° 268° (W) 16:56:19 437.375
BRITE-PL 14 Feb 16:53:30 16:58:17 30° 64° (ENE) 17:02:52 437.365/2234.400
Cosmos 2504 14 Feb 16:57:26 17:05:06 38° 276° (W) 17:12:18 435.465 / 435.565
Cosmos 2491 14 Feb 16:58:42 17:05:50 27° 301° (WNW) 17:13:01 435.465 / 435.565
AIST 2 14 Feb 17:02:01 17:04:19 14° 111° (ESE) 17:06:36 435.215
BEESAT 3 14 Feb 17:06:04 17:09:58 54° 314° (NW) 17:13:55 437.485
RS-15 14 Feb 17:10:09 17:21:32 46° 23° (NNE) 17:33:16 29.354- 29.394
HO-68 14 Feb 17:13:07 17:17:45 19° 45° (NE) 17:22:21 435.675
LilacSat-2 14 Feb 17:13:08 17:16:49 51° 72° (ENE) 17:20:31 437.200
STARS 14 Feb 17:24:44 17:28:19 25° 297° (WNW) 17:31:53 437.465
AO-85 14 Feb 17:27:58 17:33:17 86° 51° (NE) 17:38:08 145.980
PCSat 14 Feb 17:31:20 17:36:27 40° 43° (NE) 17:41:33 145.827
GOMX 1 14 Feb 17:32:46 17:37:23 33° 66° (ENE) 17:41:46 467.674
BEESAT 2 14 Feb 17:39:57 17:43:48 41° 317° (NW) 17:47:39 435.950
CUBESAT XI-V 14 Feb 17:44:29 17:49:08 55° 100° (E) 17:53:43 437.345
Cosmos 2499 14 Feb 17:57:26 18:01:43 14° 45° (NE) 18:05:52 435.465 / 435.565
CUTE-I 14 Feb 17:59:31 18:04:43 53° 260° (W) 18:09:59 437.470
CANX-2 14 Feb 18:14:30 18:17:30 19° 61° (ENE) 18:20:31 2200.000
Cubesat XI-IV 14 Feb 18:15:16 18:20:15 40° 263° (W) 18:25:18 437.490
O/OREOS (USA 219) 14 Feb 18:15:32 18:17:22 12° 263° (W) 18:19:12 437.305
GONETS M04 14 Feb 18:16:37 18:24:36 36° 64° (ENE) 18:32:35
ISS 14 Feb 18:19:53 18:23:09 71° 12° (NNE) 18:26:23 145.825
DOVE 4 14 Feb 18:25:16 18:29:59 50° 71° (ENE) 18:34:27 437.250
MOZHAYETS 4 14 Feb 18:29:12 18:30:30 11° 307° (NW) 18:31:49
BRITE-PL 14 Feb 18:31:04 18:36:33 51° 261° (W) 18:41:47 437.365/2234.400
COMPASS 1 14 Feb 18:37:41 18:40:25 17° 60° (ENE) 18:43:10 437.405
AIST 2 14 Feb 18:38:04 18:42:15 81° 310° (NW) 18:46:26 435.215
CINEMA 3 14 Feb 18:42:00 18:45:44 27° 65° (ENE) 18:49:21 145.822/145.860
BEESAT 3 14 Feb 18:46:15 18:48:35 15° 336° (NNW) 18:50:55 437.485
LilacSat-2 14 Feb 18:49:09 18:51:28 15° 270° (W) 18:53:47 437.200
STRAND 1 14 Feb 18:54:10 18:58:57 37° 97° (E) 19:03:43 437.568
HO-68 14 Feb 18:57:08 19:04:13 66° 67° (ENE) 19:11:22 435.675
SEEDS 14 Feb 19:00:07 19:03:55 34° 67° (ENE) 19:07:45 437.485
AAUSAT CUBESAT 2 14 Feb 19:00:32 19:03:49 23° 63° (ENE) 19:07:07 437.432
CUTE 1.7 + AOD 2 14 Feb 19:02:53 19:06:55 46° 70° (ENE) 19:11:00 437.475
AO-85 14 Feb 19:09:46 19:13:04 17° 251° (WSW) 19:16:12 145.980
GOMX 1 14 Feb 19:10:27 19:15:24 40° 263° (W) 19:20:05 467.674
PCSat 14 Feb 19:14:47 19:19:58 45° 244° (WSW) 19:25:07 145.827
Oscar 11 14 Feb 19:17:09 19:19:58 17° 60° (ENE) 19:22:46 145.826/435.025
BEESAT 2 14 Feb 19:20:44 19:22:43 13° 340° (NNW) 19:24:42 435.950
CUBESAT XI-V 14 Feb 19:22:33 19:26:11 22° 299° (WNW) 19:29:46 437.345
RS-15 14 Feb 19:23:24 19:35:34 89° 230° (SW) 19:47:58 29.354- 29.394
DELFI C3 14 Feb 19:34:06 19:36:00 13° 58° (ENE) 19:37:55 145.870
AIST 1 14 Feb 19:38:12 19:40:32 14° 62° (ENE) 19:42:52
UWE-3 14 Feb 19:39:21 19:42:54 27° 65° (ENE) 19:46:25 435.000/436.395/437.385
CANX-2 14 Feb 19:48:52 19:53:00 55° 260° (W) 19:57:12 2200.000
Cosmos 2499 14 Feb 19:49:06 19:57:20 53° 71° (ENE) 20:04:53 435.465 / 435.565
CUBEBUG 2 14 Feb 19:49:23 19:53:25 45° 70° (ENE) 19:57:24 437.445
ISS 14 Feb 19:56:27 19:59:28 36° 211° (SSW) 20:02:29 145.825
HUMSAT D 14 Feb 19:56:54 19:57:51 11° 56° (NE) 19:58:48 437.325/437.525
DOVE 4 14 Feb 20:04:00 20:07:55 23° 267° (W) 20:11:40 437.250
COMPASS 1 14 Feb 20:11:27 20:15:34 61° 259° (W) 20:19:45 437.405
PRISM 14 Feb 20:11:27 20:15:37 63° 102° (ESE) 20:19:44 437.425
GONETS M04 14 Feb 20:13:22 20:22:02 64° 267° (W) 20:30:42
AIST 2 14 Feb 20:18:20 20:21:23 19° 331° (NNW) 20:24:26 435.215
CINEMA 3 14 Feb 20:18:37 20:22:47 37° 263° (W) 20:26:49 145.822/145.860
ZACube-1 14 Feb 20:20:39 20:24:39 49° 71° (ENE) 20:28:40 437.345
FUNcube-1 14 Feb 20:26:49 20:30:51 54° 72° (ENE) 20:34:55 145.935
STRAND 1 14 Feb 20:33:25 20:38:08 37° 296° (WNW) 20:42:50 437.568
AAUSAT CUBESAT 2 14 Feb 20:35:10 20:39:07 42° 262° (W) 20:43:06 437.432
SEEDS 14 Feb 20:36:06 20:39:42 27° 266° (W) 20:43:20 437.485
CUTE 1.7 + AOD 2 14 Feb 20:39:51 20:43:01 20° 269° (W) 20:46:14 437.475
HO-68 14 Feb 20:46:19 20:52:28 30° 267° (W) 20:58:41 435.675
Oscar 11 14 Feb 20:51:22 20:55:39 65° 259° (W) 20:59:58 145.826/435.025
VELOX 1 14 Feb 20:53:11 20:54:12 11° 53° (NE) 20:55:13 145.980
DELFI C3 14 Feb 21:06:22 21:10:21 79° 257° (WSW) 21:14:23 145.870
AISAT 14 Feb 21:09:03 21:11:38 15° 57° (ENE) 21:14:13 437.250
DX 1 14 Feb 21:13:24 21:16:12 17° 58° (ENE) 21:19:01 434.975-435.025
CUBEBUG 1 14 Feb 21:13:26 21:15:38 14° 56° (ENE) 21:17:50 437.445
AIST 1 14 Feb 21:14:23 21:18:45 75° 262° (W) 21:23:02
UWE-3 14 Feb 21:15:29 21:19:18 34° 264° (W) 21:23:07 435.000/436.395/437.385
CUBEBUG 2 14 Feb 21:27:06 21:30:17 20° 268° (W) 21:33:27 437.445
HUMSAT D 14 Feb 21:28:43 21:32:47 79° 74° (ENE) 21:36:54 437.325/437.525
RS-15 14 Feb 21:36:43 21:46:38 31° 257° (WSW) 21:56:41 29.354- 29.394
Cosmos 2499 14 Feb 21:42:40 21:50:13 40° 275° (W) 21:57:15 435.465 / 435.565
PRISM 14 Feb 21:47:49 21:50:31 17° 301° (WNW) 21:53:13 437.425
ANTELSAT 14 Feb 21:48:41 21:52:07 22° 93° (E) 21:55:34 437.575/2403.000
50 SAT 14 Feb 21:49:12 21:52:31 31° 67° (ENE) 21:55:51 437.505
ESTCUBE 1 14 Feb 21:50:39 21:54:47 36° 67° (ENE) 21:58:57 437.505/2401.250
TIGRISAT 14 Feb 21:53:36 21:57:07 23° 93° (E) 22:00:40 435.000
ZACube-1 14 Feb 21:58:19 22:01:15 19° 269° (W) 22:04:12 437.345
AIST 2 14 Feb 22:01:10 22:01:30 10° 355° (N) 22:01:48 435.215
FUNcube-1 14 Feb 22:04:45 22:07:28 17° 270° (W) 22:10:12 145.935
BEESAT 3 14 Feb 22:05:09 22:07:29 15° 24° (NNE) 22:09:48 437.485
GONETS M04 14 Feb 22:12:38 22:17:01 15° 290° (WNW) 22:21:25
POPSAT HIP 1 14 Feb 22:19:02 22:20:10 11° 87° (E) 22:21:19 437.405
DUCHIFAT 1 14 Feb 22:19:50 22:20:17 10° 86° (E) 22:20:45 145.980
NANOSAT C BR1 14 Feb 22:20:13 22:21:24 11° 87° (E) 22:22:34 145.865
VELOX 1 14 Feb 22:25:25 22:29:51 67° 73° (ENE) 22:34:17 145.980
UKube-1 14 Feb 22:25:45 22:30:02 62° 72° (ENE) 22:34:20 .
SPROUT 14 Feb 22:26:35 22:30:01 24° 63° (ENE) 22:33:28 437.525
QB50P1 14 Feb 22:30:06 22:32:29 15° 89° (E) 22:34:51 145.935-145.965
BEESAT 2 14 Feb 22:39:07 22:41:53 18° 28° (NNE) 22:44:38 435.950
UNISAT 6 14 Feb 22:39:46 22:44:08 67° 103° (ESE) 22:48:34 437.425
AISAT 14 Feb 22:43:05 22:47:34 81° 256° (WSW) 22:52:03 437.250
CUBEBUG 1 14 Feb 22:46:51 22:51:18 89° 54° (NE) 22:55:45 437.445
DX 1 14 Feb 22:47:33 22:51:55 71° 256° (WSW) 22:56:19 434.975-435.025
BUGSAT 1 14 Feb 22:56:46 22:58:42 13° 89° (E) 23:00:36 437.445
HUMSAT D 14 Feb 23:07:34 23:09:01 12° 273° (W) 23:10:27 437.325/437.525
Cosmos 2491 14 Feb 23:08:38 23:13:14 15° 45° (NE) 23:17:50 435.465 / 435.565
SWISSCUBE 14 Feb 23:17:50 23:18:36 10° 50° (NE) 23:19:22 437.505
50 SAT 14 Feb 23:23:31 23:26:34 24° 266° (W) 23:29:40 437.505
POLYITAN 1 14 Feb 23:23:44 23:27:51 49° 100° (E) 23:31:57 437.675
QB50P2 14 Feb 23:24:06 23:28:14 51° 100° (E) 23:32:20 145.880/145.840
ANTELSAT 14 Feb 23:24:52 23:29:04 46° 290° (WNW) 23:33:19 437.575/2403.000
ESTCUBE 1 14 Feb 23:27:39 23:31:39 30° 265° (W) 23:35:42 437.505/2401.250
TIGRISAT 14 Feb 23:29:52 23:34:00 43° 291° (WNW) 23:38:12 435.000
DANDE 14 Feb 23:32:00 23:35:04 12° 72° (ENE) 23:38:08 436.750
AIST 2 14 Feb 23:39:39 23:41:47 14° 20° (NNE) 23:43:56 435.215
BEESAT 3 14 Feb 23:42:10 23:46:06 54° 46° (NE) 23:49:58 437.485
TISAT 1 14 Feb 23:49:18 23:53:28 60° 72° (ENE) 23:57:37 437.305
CUSAT 1 14 Feb 23:50:34 23:56:51 26° 84° (E) 00:02:48 437.405
POPSAT HIP 1 14 Feb 23:52:23 23:56:37 87° 279° (W) 00:00:49 437.405
DUCHIFAT 1 14 Feb 23:52:28 23:56:40 88° 107° (ESE) 00:00:52 145.980
NANOSAT C BR1 14 Feb 23:53:33 23:57:47 87° 282° (WNW) 00:01:58 145.865
ITUPSAT 1 14 Feb 23:54:38 23:57:57 19° 58° (ENE) 00:01:16 437.325
PHONESAT 2.4 14 Feb 23:54:42 23:56:34 14° 168° (SSE) 23:58:26 2401.200-2431.200
BEESAT 14 Feb 23:59:10 00:02:39 21° 59° (ENE) 00:06:10 436.000
SPROUT 15 Feb 00:01:44 00:05:48 42° 262° (W) 00:09:55 437.525
UKube-1 15 Feb 00:03:46 00:06:31 16° 270° (W) 00:09:17 .
VELOX 1 15 Feb 00:04:02 00:06:47 16° 270° (W) 00:09:34 145.980
QB50P1 15 Feb 00:04:32 00:08:44 66° 287° (WNW) 00:12:53 145.935-145.965
BEESAT 2 15 Feb 00:16:25 00:20:27 75° 49° (NE) 00:24:26 435.950
UNISAT 6 15 Feb 00:17:34 00:20:26 17° 300° (WNW) 00:23:19 437.425
AISAT 15 Feb 00:24:08 00:24:48 10° 274° (W) 00:25:27 437.250
CUBEBUG 1 15 Feb 00:26:40 00:28:14 12° 273° (W) 00:29:49 437.445
BUGSAT 1 15 Feb 00:30:32 00:34:34 68° 287° (WNW) 00:38:33 437.445
SWISSCUBE 15 Feb 00:50:45 00:55:25 58° 70° (ENE) 01:00:08 437.505
Oscar 19 15 Feb 00:52:06 00:56:25 26° 93° (E) 01:00:42 437.125/150
POLYITAN 1 15 Feb 01:00:15 01:03:23 21° 298° (WNW) 01:06:31 437.675
QB50P2 15 Feb 01:00:39 01:03:45 20° 299° (WNW) 01:06:50 145.880/145.840
Cosmos 2491 15 Feb 01:04:01 01:12:36 54° 72° (ENE) 01:21:08 435.465 / 435.565
DANDE 15 Feb 01:08:22 01:16:17 51° 92° (E) 01:24:13 436.750
STARS 15 Feb 01:16:53 01:17:22 10° 53° (NE) 01:17:51 437.465
AIST 2 15 Feb 01:17:24 01:21:22 41° 42° (NE) 01:25:17 435.215
BEESAT 3 15 Feb 01:20:34 01:23:31 20° 245° (WSW) 01:26:28 437.485
TISAT 1 15 Feb 01:26:55 01:29:32 16° 270° (W) 01:32:09 437.305
DUCHIFAT 1 15 Feb 01:29:53 01:31:46 13° 303° (WNW) 01:33:39 145.980
POPSAT HIP 1 15 Feb 01:30:01 01:31:46 12° 304° (WNW) 01:33:29 437.405
CUSAT 1 15 Feb 01:30:17 01:38:30 86° 282° (WNW) 01:46:02 437.405
ITUPSAT 1 15 Feb 01:30:31 01:35:17 72° 257° (WSW) 01:40:06 437.325
PHONESAT 2.4 15 Feb 01:30:57 01:33:06 16° 185° (S) 01:35:14 2401.200-2431.200
NANOSAT C BR1 15 Feb 01:31:11 01:32:52 12° 304° (NW) 01:34:34 145.865
BEESAT 15 Feb 01:35:18 01:40:02 64° 258° (WSW) 01:44:49 436.000
KKS-1 15 Feb 01:45:01 01:48:51 29° 64° (ENE) 01:52:41 437.445
JAS-2 15 Feb 01:50:44 01:56:17 59° 101° (E) 02:01:25 435.910
BEESAT 2 15 Feb 01:55:33 01:57:50 15° 248° (WSW) 02:00:06 435.950
YUBILEINY 15 Feb 01:57:22 02:05:18 40° 85° (E) 02:13:17 435.215
Gurwin Techsat 1B 15 Feb 02:07:37 02:12:47 47° 99° (E) 02:17:54 435.225
ITAMSAT 1 15 Feb 02:13:07 02:17:41 29° 94° (E) 02:22:13 435.822/435.867
MOZHAYETS 4 15 Feb 02:19:20 02:23:10 27° 63° (ENE) 02:27:01
SWISSCUBE 15 Feb 02:30:03 02:33:36 20° 269° (W) 02:37:11 437.505
Oscar 19 15 Feb 02:31:02 02:35:59 49° 292° (WNW) 02:40:55 437.125/150
AO-7 15 Feb 02:34:10 02:39:53 20° 87° (E) 02:45:33 29.400- 29.500
SO-50 15 Feb 02:45:42 02:48:39 16° 110° (ESE) 02:51:36 436.795
STARS 15 Feb 02:48:33 02:52:54 65° 72° (ENE) 02:57:16 437.465
DANDE 15 Feb 02:51:19 02:59:22 49° 292° (WNW) 03:07:20 436.750
AIST 2 15 Feb 02:56:07 02:59:45 30° 242° (WSW) 03:03:22 435.215
Cosmos 2491 15 Feb 03:01:16 03:09:15 42° 274° (W) 03:17:16 435.465 / 435.565
CUSAT 1 15 Feb 03:15:21 03:21:42 25° 301° (WNW) 03:27:35 437.405
CUBESAT XI-V 15 Feb 03:17:16 03:19:45 14° 56° (NE) 03:22:16 437.345
KKS-1 15 Feb 03:21:12 03:25:20 37° 263° (W) 03:29:29 437.445
JAS-2 15 Feb 03:36:30 03:40:58 25° 303° (WNW) 03:45:11 435.910
Cosmos 2504 15 Feb 03:46:08 03:54:13 43° 86° (E) 04:02:25 435.465 / 435.565
Gurwin Techsat 1B 15 Feb 03:47:56 03:52:33 30° 298° (WNW) 03:57:08 435.225
ITAMSAT 1 15 Feb 03:52:20 03:57:20 46° 293° (WNW) 04:02:20 435.822/435.867
YUBILEINY 15 Feb 03:53:11 04:01:49 57° 287° (WNW) 04:10:33 435.215
MOZHAYETS 4 15 Feb 03:55:49 04:00:10 42° 262° (W) 04:04:34
SO-50 15 Feb 04:23:32 04:28:28 88° 132° (SE) 04:33:28 436.795
AO-7 15 Feb 04:25:37 04:34:00 80° 108° (ESE) 04:42:20 29.400- 29.500
M-CUBED/EXP-1 PRIME 15 Feb 04:26:03 04:29:13 33° 104° (ESE) 04:32:33 437.505
STARS 15 Feb 04:27:00 04:29:43 16° 270° (W) 04:32:27 437.465
AUBIESAT-1 15 Feb 04:30:38 04:33:49 31° 104° (ESE) 04:37:09 437.475
HORYU 2 15 Feb 04:34:44 04:39:08 55° 101° (E) 04:43:31 437.375
STRAND 1 15 Feb 04:38:04 04:40:56 15° 53° (NE) 04:43:50 437.568
DANDE 15 Feb 04:39:54 04:44:25 15° 314° (NW) 04:48:50 436.750
CUBESAT XI-V 15 Feb 04:51:44 04:56:27 86° 75° (ENE) 05:01:13 437.345
PRISM 15 Feb 05:32:50 05:34:23 12° 55° (NE) 05:35:56 437.425
Cosmos 2504 15 Feb 05:38:52 05:47:27 55° 288° (WNW) 05:56:11 435.465 / 435.565
YUBILEINY 15 Feb 05:56:03 06:01:03 16° 314° (NW) 06:06:06 435.215
M-CUBED/EXP-1 PRIME 15 Feb 06:01:03 06:03:46 22° 300° (WNW) 06:06:36 437.505
SO-50 15 Feb 06:05:28 06:09:36 26° 331° (NNW) 06:13:44 436.795
AUBIESAT-1 15 Feb 06:05:29 06:08:20 24° 300° (WNW) 06:11:18 437.475
CUTE-I 15 Feb 06:11:55 06:17:05 45° 98° (E) 06:22:13 437.470
HORYU 2 15 Feb 06:12:03 06:15:22 21° 300° (WNW) 06:18:40 437.375
STRAND 1 15 Feb 06:14:13 06:19:21 80° 72° (ENE) 06:24:31 437.568
LilacSat-2 15 Feb 06:16:31 06:20:09 42° 98° (E) 06:23:45 437.200
AO-7 15 Feb 06:19:02 06:26:05 32° 311° (NW) 06:33:06 29.400- 29.500
Cubesat XI-IV 15 Feb 06:27:27 06:32:48 60° 102° (ESE) 06:38:07 437.490
BRITE-PL 15 Feb 06:32:08 06:36:29 38° 96° (E) 06:40:33 437.365/2234.400
CUBESAT XI-V 15 Feb 06:32:13 06:34:30 13° 274° (W) 06:36:48 437.345
O/OREOS (USA 219) 15 Feb 06:50:40 06:54:56 44° 109° (ESE) 06:59:16 437.305
PRISM 15 Feb 07:04:51 07:09:01 82° 76° (ENE) 07:13:16 437.425
GOMX 1 15 Feb 07:07:58 07:12:08 42° 98° (E) 07:16:07 467.674
GONETS M04 15 Feb 07:24:15 07:31:41 34° 82° (E) 07:39:10
CANX-2 15 Feb 07:30:08 07:33:18 20° 91° (E) 07:36:27 2200.000
Cosmos 2504 15 Feb 07:38:15 07:43:15 16° 314° (NW) 07:48:17 435.465 / 435.565
AO-85 15 Feb 07:49:04 07:51:16 12° 105° (ESE) 07:53:28 145.980
SO-50 15 Feb 07:49:05 07:51:46 14° 355° (N) 07:54:26 436.795
COMPASS 1 15 Feb 07:51:00 07:53:43 16° 90° (E) 07:56:25 437.405
LilacSat-2 15 Feb 07:51:28 07:54:13 19° 297° (WNW) 07:56:59 437.200
CUTE-I 15 Feb 07:52:15 07:57:00 33° 298° (WNW) 08:01:44 437.470
STRAND 1 15 Feb 07:56:01 07:59:10 16° 272° (W) 08:02:20 437.568
DOVE 4 15 Feb 07:57:21 08:01:34 70° 101° (ESE) 08:05:42 437.250
HO-68 15 Feb 08:07:36 08:14:30 46° 99° (E) 08:21:21 435.675
Cubesat XI-IV 15 Feb 08:08:09 08:12:31 26° 301° (WNW) 08:16:53 437.490
CINEMA 3 15 Feb 08:08:29 08:12:17 33° 96° (E) 08:16:06 145.822/145.860
UNISAT 6 15 Feb 08:08:50 08:11:01 14° 57° (ENE) 08:13:11 437.425
BRITE-PL 15 Feb 08:10:53 08:14:52 28° 297° (WNW) 08:18:36 437.365/2234.400
AAUSAT CUBESAT 2 15 Feb 08:13:28 08:16:49 22° 92° (E) 08:20:09 437.432
AO-7 15 Feb 08:13:46 08:16:18 12° 336° (NNW) 08:18:49 29.400- 29.500
SEEDS 15 Feb 08:15:00 08:18:58 36° 96° (E) 08:22:55 437.485
CUTE 1.7 + AOD 2 15 Feb 08:19:01 08:23:13 51° 99° (E) 08:27:25 437.475
PCSat 15 Feb 08:21:14 08:23:03 12° 102° (ESE) 08:24:53 145.827
Cosmos 2499 15 Feb 08:29:59 08:37:57 40° 85° (E) 08:45:53 435.465 / 435.565
O/OREOS (USA 219) 15 Feb 08:30:40 08:34:32 28° 310° (NW) 08:38:28 437.305
Oscar 11 15 Feb 08:35:03 08:37:59 17° 90° (E) 08:40:55 145.826/435.025
DELFI C3 15 Feb 08:42:34 08:43:26 11° 86° (E) 08:44:18 145.870
PRISM 15 Feb 08:43:25 08:44:57 12° 272° (W) 08:46:30 437.425
GOMX 1 15 Feb 08:46:34 08:50:01 23° 298° (WNW) 08:53:21 467.674
ANTELSAT 15 Feb 08:51:46 08:55:32 32° 66° (ENE) 08:59:21 437.575/2403.000
TIGRISAT 15 Feb 08:56:29 09:00:19 33° 67° (ENE) 09:04:10 435.000
UWE-3 15 Feb 09:00:07 09:03:57 32° 96° (E) 09:07:51 435.000/436.395/437.385
CANX-2 15 Feb 09:05:17 09:09:27 50° 289° (WNW) 09:13:37 2200.000
CUBEBUG 2 15 Feb 09:11:51 09:16:01 56° 100° (E) 09:20:15 437.445
DUCHIFAT 1 15 Feb 09:14:55 09:17:22 15° 59° (ENE) 09:19:48 145.980
POPSAT HIP 1 15 Feb 09:15:08 09:17:45 16° 59° (ENE) 09:20:23 437.405
NANOSAT C BR1 15 Feb 09:16:02 09:18:38 16° 59° (ENE) 09:21:16 145.865
GONETS M04 15 Feb 09:19:19 09:27:56 66° 285° (WNW) 09:36:41
AO-85 15 Feb 09:25:27 09:30:49 66° 124° (SE) 09:36:18 145.980
COMPASS 1 15 Feb 09:25:30 09:29:41 59° 288° (WNW) 09:33:51 437.405
QB50P1 15 Feb 09:26:35 09:29:43 21° 62° (ENE) 09:32:51 145.935-145.965
SO-50 15 Feb 09:30:44 09:34:09 18° 19° (NNE) 09:37:30 436.795
DOVE 4 15 Feb 09:36:23 09:38:46 15° 302° (WNW) 09:41:08 437.250
ZACube-1 15 Feb 09:40:23 09:44:35 58° 101° (E) 09:48:52 437.345
UNISAT 6 15 Feb 09:42:52 09:47:09 83° 256° (WSW) 09:51:27 437.425
CINEMA 3 15 Feb 09:45:51 09:49:23 28° 295° (WNW) 09:52:57 145.822/145.860
FUNcube-1 15 Feb 09:46:14 09:50:28 64° 101° (E) 09:54:47 145.935
AIST 1 15 Feb 09:47:51 09:52:06 50° 94° (E) 09:56:23
AAUSAT CUBESAT 2 15 Feb 09:48:31 09:52:30 42° 291° (WNW) 09:56:28 437.432
BUGSAT 1 15 Feb 09:50:24 09:53:16 18° 61° (ENE) 09:56:08 437.445
SEEDS 15 Feb 09:50:57 09:54:35 27° 295° (WNW) 09:58:11 437.485
RS-15 15 Feb 09:53:10 10:02:56 37° 107° (ESE) 10:13:09 29.354- 29.394
HO-68 15 Feb 09:55:28 10:02:14 46° 299° (WNW) 10:08:58 435.675
CUTE 1.7 + AOD 2 15 Feb 09:55:34 09:58:46 21° 298° (WNW) 10:01:58 437.475
PCSat 15 Feb 10:00:04 10:05:26 68° 121° (ESE) 10:10:51 145.827
DANDE 15 Feb 10:05:12 10:07:12 11° 40° (NE) 10:09:05 436.750
Oscar 11 15 Feb 10:10:12 10:14:30 58° 288° (WNW) 10:18:47 145.826/435.025
DELFI C3 15 Feb 10:14:52 10:18:57 86° 286° (WNW) 10:23:00 145.870
POLYITAN 1 15 Feb 10:20:23 10:24:33 65° 73° (ENE) 10:28:45 437.675
QB50P2 15 Feb 10:20:42 10:24:54 68° 73° (ENE) 10:29:06 145.880/145.840
Cosmos 2499 15 Feb 10:22:03 10:30:46 60° 286° (WNW) 10:39:30 435.465 / 435.565
CUSAT 1 15 Feb 10:23:00 10:26:30 16° 52° (NE) 10:29:30 437.405
JAS-2 15 Feb 10:26:24 10:28:55 12° 46° (NE) 10:31:21 435.910
ANTELSAT 15 Feb 10:28:31 10:32:17 30° 265° (W) 10:36:04 437.575/2403.000
AISAT 15 Feb 10:30:28 10:32:50 14° 88° (E) 10:35:12 437.250
DX 1 15 Feb 10:32:41 10:35:09 15° 89° (E) 10:37:37 434.975-435.025
CUBEBUG 1 15 Feb 10:33:02 10:34:51 12° 87° (E) 10:36:39 437.445
TIGRISAT 15 Feb 10:33:23 10:37:05 28° 265° (W) 10:40:47 435.000
UWE-3 15 Feb 10:36:42 10:40:24 30° 294° (WNW) 10:44:09 435.000/436.395/437.385
Oscar 19 15 Feb 10:37:59 10:39:41 12° 50° (NE) 10:41:24 437.125/150
HUMSAT D 15 Feb 10:43:15 10:47:28 82° 104° (ESE) 10:51:43 437.325/437.525
DUCHIFAT 1 15 Feb 10:48:23 10:52:35 72° 258° (WSW) 10:56:47 145.980
POPSAT HIP 1 15 Feb 10:48:53 10:53:06 67° 257° (WSW) 10:57:19 437.405
CUBEBUG 2 15 Feb 10:49:23 10:52:19 19° 299° (WNW) 10:55:17 437.445
NANOSAT C BR1 15 Feb 10:49:44 10:53:56 67° 258° (WSW) 10:58:08 145.865
50 SAT 15 Feb 10:50:10 10:53:16 23° 94° (E) 10:56:22 437.505
QB50P1 15 Feb 11:01:07 11:05:13 50° 260° (W) 11:09:20 145.935-145.965
AO-85 15 Feb 11:06:46 11:11:46 35° 325° (NW) 11:16:46 145.980
SO-50 15 Feb 11:11:00 11:15:46 50° 42° (NE) 11:20:23 436.795
ESTCUBE 1 15 Feb 11:15:08 11:19:28 41° 98° (E) 11:23:44 437.505/2401.250
ZACube-1 15 Feb 11:17:36 11:20:31 18° 299° (WNW) 11:23:29 437.345
GONETS M04 15 Feb 11:21:14 11:26:50 18° 310° (NW) 11:32:31
FUNcube-1 15 Feb 11:23:34 11:26:19 17° 300° (WNW) 11:29:06 145.935
BUGSAT 1 15 Feb 11:24:13 11:28:19 55° 259° (W) 11:32:24 437.445
AIST 1 15 Feb 11:26:44 11:30:01 20° 294° (WNW) 11:33:19
SPROUT 15 Feb 11:43:42 11:47:10 24° 93° (E) 11:50:38 437.525
UKube-1 15 Feb 11:44:30 11:48:48 61° 102° (ESE) 11:53:04 .
PCSat 15 Feb 11:44:32 11:49:18 30° 323° (NW) 11:54:05 145.827
HO-68 15 Feb 11:45:09 11:48:14 13° 322° (NW) 11:51:19 435.675
DANDE 15 Feb 11:45:57 11:52:31 45° 67° (ENE) 11:57:31 436.750
VELOX 1 15 Feb 11:47:36 11:52:02 73° 103° (ESE) 11:56:26 145.980
AO-7 15 Feb 11:50:10 11:54:24 15° 32° (NNE) 11:58:39 29.400- 29.500
DELFI C3 15 Feb 11:51:51 11:53:12 11° 303° (WNW) 11:54:33 145.870
Gurwin Techsat 1B 15 Feb 11:55:11 11:59:02 21° 57° (ENE) 12:02:53 435.225
POLYITAN 1 15 Feb 11:58:26 12:00:50 15° 271° (W) 12:03:14 437.675
QB50P2 15 Feb 11:58:52 12:01:12 14° 271° (W) 12:03:31 145.880/145.840
ITAMSAT 1 15 Feb 11:59:22 12:01:47 13° 51° (NE) 12:04:13 435.822/435.867
YUBILEINY 15 Feb 12:01:19 12:08:30 26° 58° (ENE) 12:15:36 435.215
RS-15 15 Feb 12:03:02 12:14:21 80° 313° (NW) 12:26:22 29.354- 29.394
CUSAT 1 15 Feb 12:04:20 12:09:57 82° 260° (W) 12:14:05 437.405
AISAT 15 Feb 12:05:27 12:09:52 73° 287° (WNW) 12:14:14 437.250
JAS-2 15 Feb 12:05:47 12:12:42 49° 66° (ENE) 12:18:54 435.910
CUBEBUG 1 15 Feb 12:07:23 12:11:47 82° 284° (WNW) 12:16:06 437.445
DX 1 15 Feb 12:07:30 12:11:51 69° 288° (WNW) 12:16:10 434.975-435.025
Oscar 19 15 Feb 12:12:56 12:18:00 59° 70° (ENE) 12:23:06 437.125/150
HUMSAT D 15 Feb 12:20:27 12:22:34 14° 302° (WNW) 12:24:41 437.325/437.525
Cosmos 2499 15 Feb 12:20:39 12:26:04 17° 311° (NW) 12:31:29 435.465 / 435.565
Cosmos 2491 15 Feb 12:22:24 12:24:20 11° 66° (ENE) 12:26:16 435.465 / 435.565
50 SAT 15 Feb 12:23:54 12:27:22 33° 292° (WNW) 12:30:49 437.505
SWISSCUBE 15 Feb 12:49:18 12:50:16 11° 85° (E) 12:51:14 437.505
